[Iaude] MPEC T116: 2022 QO264 [a=13.79,e=0.69,i=41.2,H=15.9]

mpec at marsden.cfa.harvard.edu mpec at marsden.cfa.harvard.edu
Mon Oct 9 04:44:14 EDT 2023


M.P.E.C. 2023-T116                              Issued 2023 October 9, 08:42 UT

     The Minor Planet Electronic Circulars contain information on unusual
         minor planets, routine data on comets and natural satellites,
         and occasional editorial announcements.  They are published
    on behalf of Division F of the International Astronomical Union by the
          Minor Planet Center, Smithsonian Astrophysical Observatory,
                          Cambridge, MA 02138, U.S.A.
			  
             Prepared using the Tamkin Foundation Computer Network

                              MPC at CFA.HARVARD.EDU
            URL https://www.minorplanetcenter.net/    ISSN 1523-6714

                                   2022 QO264                                   


Observations:
     K22QQ4O* C2022 08 31.41890600 59 40.895+13 12 17.93         22.38wUET116F51
     K22QQ4O  C2022 08 31.43050000 59 40.796+13 12 13.52         22.40wUET116F51
     K22QQ4O  C2022 08 31.44224300 59 40.686+13 12 08.10         22.56wUET116F51
     K22QQ4O  C2022 09 22.38210900 53 51.136+10 02 02.27         21.97wUET116F52
     K22QQ4O  C2022 09 22.39312000 53 50.904+10 01 55.89         21.98wUET116F52
     K22QQ4O  C2022 09 22.40405300 53 50.645+10 01 49.66         22.23wUET116F52
     K22QQ4O  C2022 09 22.41503200 53 50.438+10 01 43.11         22.18wUET116F52
     K22QQ4O  C2022 10 02.44121100 50 04.950+08 20 23.60         21.84wUET116F51
     K22QQ4O  C2022 10 02.45263400 50 04.680+08 20 16.90         21.77wUET116F51
     K22QQ4O  C2022 10 02.46377000 50 04.405+08 20 09.89         21.63wUET116F51
     K22QQ4O  C2022 10 02.47495300 50 04.136+08 20 02.88         21.90wUET116F51
     K22QQ4O  C2022 10 20.36812000 43 17.883+05 14 27.84         22.19wUET116F52
     K22QQ4O  C2022 10 20.37788500 43 17.669+05 14 22.25         22.06wUET116F52
     K22QQ4O  C2022 10 20.38765300 43 17.451+05 14 16.29         21.91wUET116F52

Observer details:
F51 Pan-STARRS 1, Haleakala.  Observers J. Bulger, T. Lowe, A. Schultz, I.
    Smith.  Measurers K. Chambers, S. Chastel, T. de Boer, J. Fairlamb, H.
    Gao, M. Huber, C.-C. Lin, E. Magnier, Y. Ramanjooloo, R. Wainscoat, R.
    Weryk.  1.8-m Ritchey-Chretien + CCD.
F52 Pan-STARRS 2, Haleakala.  Observers J. Bulger, T. Lowe, A. Schultz, I.
    Smith.  Measurers K. Chambers, S. Chastel, T. de Boer, J. Fairlamb, H.
    Gao, M. Huber, C.-C. Lin, E. Magnier, Y. Ramanjooloo, R. Wainscoat, R.
    Weryk.  1.8-m Ritchey-Chretien + CCD.

Orbital elements:
2022 QO264                                                                      
Epoch 2023 Sept. 13.0 TT = JDT 2460200.5                Bell                    
M   7.42220              (2000.0)            P               Q                  
n   0.01924026     Peri.  171.11372     +0.98231463     -0.05397262             
a  13.7931072      Node   195.80664     +0.10380780     +0.95390124             
e   0.6881801      Incl.   41.16325     +0.15582651     -0.29522767             
P  51.2            H   15.90          G   0.15           U   5                  
Residuals in seconds of arc
220831 F51  0.2-  0.3-    220922 F52  0.2-  0.1+    221002 F51  0.0   0.0
220831 F51  0.0   0.3+    220922 F52  0.3+  0.0     221020 F52  0.0   0.2-
220831 F51  0.2+  0.0     221002 F51  0.1-  0.2-    221020 F52  0.0   0.1+
220922 F52  0.1-  0.1-    221002 F51  0.0   0.2+    221020 F52  0.0   0.1+
220922 F52  0.0   0.0     221002 F51  0.0   0.1+

Ephemeris:
2022 QO264               a,e,i = 13.79, 0.69, 41                 q = 4.3010
Date    TT    R. A. (2000) Decl.     Delta      r    Elong.  Phase     V
2023 09 09    04 16 42.9 -06 18 00   4.6851  5.0120   103.2    11.3    23.5
...
2023 09 24    04 18 54.9 -08 23 35   4.5519  5.0626   115.3    10.3    23.4
...
2023 10 02    04 18 53.0 -09 32 27   4.4932  5.0900   121.6     9.6    23.3
...
2023 10 08    04 18 19.0 -10 23 53   4.4562  5.1108   126.2     9.1    23.3
2023 10 09    04 18 10.7 -10 32 23   4.4507  5.1143   127.0     9.0    23.3
2023 10 10    04 18 01.7 -10 40 52   4.4454  5.1177   127.7     8.9    23.3
...
2023 10 16    04 16 52.1 -11 30 55   4.4178  5.1387   132.0     8.3    23.3
...
2023 10 24    04 14 41.7 -12 34 34   4.3934  5.1670   137.1     7.5    23.2
...
2023 11 08    04 09 04.1 -14 19 01   4.3892  5.2207   143.7     6.5    23.2

M. P. C. Staff               (C) Copyright 2023 MPC           M.P.E.C. 2023-T116





More information about the Iaude mailing list